Station 46097 - OOI Newport Shelf Image indicating link to RSS feed of recent meteorological observations for station 46097


Conditions at 46097 as of
(10:50 pm PDT on 04/22/2024)
0550 GMT on 04/23/2024:
     

Click on the graph icon in the table below to see a time series plot of the last five days of that observation.

5-day plot - Wind Direction Wind Direction (WDIR): N ( 350 deg true )
5-day plot - Wind Speed Wind Speed (WSPD): 17.5 kts
5-day plot - Atmospheric Pressure Atmospheric Pressure (PRES):29.91 in
5-day plot - Air Temperature Air Temperature (ATMP): 52.5 °F
5-day plot - Water Temperature Water Temperature (WTMP): 50.2 °F
5-day plot - Salinity Salinity (SAL): 31.54 psu
5-day plot - Wind Chill Wind Chill (CHILL): 46.9 °F
5-day plot - Wind Speed at 10 Meters Wind Speed at 10 meters (WSPD10M): 19.4 kts
5-day plot - Wind Speed at 20 Meters Wind Speed at 20 meters (WSPD20M): 21.4 kts
5-day plot -  Wind Speed, Wind Gust and Atmospheric Pressure Combined plot of Wind Speed, Gust, and Air Pressure
Previous observations
TIME
(PDT)
5-day plot - Wind Direction
WDIR
 
5-day plot - Wind Speed
WSPD
kts
5-day plot - Wind Gust
GST
kts
5-day plot - Wave Height
WVHT
ft
5-day plot - Dominant Wave Period
DPD
sec
5-day plot - Average Wave Period
APD
sec
5-day plot - Mean Wave Direction
MWD
 
5-day plot - Atmospheric Pressure
PRES
in
5-day plot - Pressure Tendency
PTDY
in
5-day plot - Air Temperature
ATMP
°F
5-day plot - Water Temperature
WTMP
°F
5-day plot - Dew Point
DEWP
°F
5-day plot - Salinity
SAL
psu
5-day plot - Visibility
VIS
nmi
5-day plot - Tide (above MLLW)
TIDE
ft
2024-04-22 10:40 pm N 17.5-----29.91- 52.3 50.2- 31.51--
2024-04-22 10:30 pm N 17.5-----29.92- 52.3 50.2- 31.51--
2024-04-22 10:20 pm N 17.5- 8.2--NNW29.91- 52.3 50.4- 31.50--
2024-04-22 10:10 pm N 19.4- 8.2 7--29.91- 52.3 50.4- 31.49--
2024-04-22 10:00 pm N 19.4-----29.91-0.02 52.3 50.4- 31.48--
2024-04-22 09:50 pm N 17.5-----29.91- 52.3 50.4- 31.46--
2024-04-22 09:40 pm N 19.4-----29.91- 52.3 50.5- 31.47--
2024-04-22 09:30 pm N 19.4-----29.91- 52.3 50.5- 31.45--
2024-04-22 09:20 pm N 19.4- 7.9--NNW29.91- 52.3 50.5- 31.43--
2024-04-22 09:10 pm N 21.4- 7.9 11--29.91- 52.2 50.5- 31.42--
2024-04-22 09:00 pm N 19.4-----29.91-0.03 52.2 50.5- 31.42--
2024-04-22 08:50 pm N 19.4-----29.91- 52.2 50.5- 31.43--
2024-04-22 08:40 pm N 19.4-----29.91- 52.2 50.5- 31.43--
2024-04-22 08:30 pm N 19.4-----29.92- 52.2 50.5- 31.43--
2024-04-22 08:20 pm N 19.4- 7.9--NNW29.91- 52.2 50.5- 31.43--
2024-04-22 08:10 pm N 19.4- 7.9 7--29.91- 52.2 50.5- 31.44--
2024-04-22 08:00 pm N 19.4-----29.91-0.04 52.2 50.5- 31.42--
2024-04-22 07:50 pm N 19.4-----29.91- 52.2 50.7- 31.44--
2024-04-22 07:40 pm N 19.4-----29.91- 52.2 50.7- 31.44--
2024-04-22 07:30 pm N 19.4-----29.91- 52.2 50.5- 31.44--
2024-04-22 07:20 pm N 19.4- 7.5--NNW29.92- 52.3 50.5- 31.44--
2024-04-22 07:10 pm N 19.4- 7.5 9--29.92- 52.5 50.5- 31.42--
2024-04-22 07:00 pm N 19.4-----29.93-0.05 52.5 50.5- 31.42--
2024-04-22 06:50 pm N 21.4-----29.93- 52.5 50.5- 31.42--
2024-04-22 06:40 pm N 19.4-----29.93- 52.5 50.5- 31.42--
2024-04-22 06:30 pm N 19.4-----29.93- 52.7 50.7- 31.42--
2024-04-22 06:20 pm N 19.4- 7.2--NNW29.94- 52.7 50.7- 31.43--
2024-04-22 06:10 pm N 19.4- 7.2 8--29.94- 52.7 50.9- 31.43--
2024-04-22 06:00 pm N 19.4-----29.94-0.06 52.7 50.9- 31.46--
2024-04-22 05:50 pm N 19.4-----29.95- 52.7 50.9- 31.46--
2024-04-22 05:40 pm N 19.4-----29.95- 52.7 50.9- 31.47--
2024-04-22 05:30 pm N 17.5-----29.95- 52.7 50.9- 31.49--
2024-04-22 05:20 pm N 19.4- 6.9--NNW29.95- 52.7 50.9- 31.50--
2024-04-22 05:10 pm N 19.4- 6.9 10--29.95- 52.7 50.9- 31.51--
2024-04-22 05:00 pm N 19.4-----29.95-0.06 52.9 50.9- 31.52--
2024-04-22 04:50 pm N 19.4-----29.96- 52.7 50.7- 31.54--
2024-04-22 04:40 pm N 17.5-----29.96- 52.7 50.7- 31.54--
2024-04-22 04:30 pm N 17.5-----29.96- 52.9 50.7- 31.55--
2024-04-22 04:20 pm N 17.5- 6.6--NNW29.96- 52.9 50.7- 31.55--
2024-04-22 04:10 pm N 17.5- 6.6 9--29.97- 52.9 50.9- 31.54--
2024-04-22 04:00 pm N 15.5-----29.97-0.07 52.9 50.9- 31.53--
2024-04-22 03:50 pm N 17.5-----29.97- 52.9 50.9- 31.54--
2024-04-22 03:40 pm N 19.4-----29.98- 53.1 50.9- 31.54--
2024-04-22 03:30 pm N 21.4-----29.98- 53.1 50.9- 31.54--
2024-04-22 03:20 pm N 19.4- 6.9-- NW29.99- 53.1 51.1- 31.54--
2024-04-22 03:10 pm N 19.4- 6.9 9--30.00- 52.9 50.9- 31.56--
2024-04-22 03:00 pm N 17.5-----30.00- 52.7 50.9- 31.55--
2024-04-22 02:50 pm N 17.5-----30.00- 52.7 50.7- 31.54--
2024-04-22 02:40 pm N 15.5-----30.01- 52.5 50.7- 31.51--
2024-04-22 02:30 pm N 17.5-----30.01- 52.7 50.9- 31.49--
2024-04-22 02:20 pm N 17.5- 6.2-- NW30.01- 52.7 50.9- 31.48--
2024-04-22 02:10 pm N 17.5- 6.2 10--30.01- 52.7 50.9- 31.50--
2024-04-22 02:00 pm N 17.5-----30.02-0.06 52.5 50.9- 31.49--
2024-04-22 01:50 pm N 15.5-----30.02- 52.5 50.9- 31.50--
2024-04-22 01:40 pm N 15.5-----30.03- 52.3 50.9- 31.51--
2024-04-22 01:30 pm N 15.5-----30.03- 52.3 50.9- 31.52--
2024-04-22 01:20 pm N 15.5- 6.2-- NW30.03- 52.3 50.9- 31.53--
2024-04-22 01:10 pm N 15.5- 6.2 9--30.03- 52.2 50.9- 31.56--
2024-04-22 01:00 pm N 15.5-----30.04-0.05 52.2 50.9- 31.59--
2024-04-22 11:50 am N 15.5-----30.06- 51.4 50.7- 31.55--
2024-04-22 11:40 am N 15.5-----30.06- 51.3 50.7- 31.55--
2024-04-22 11:30 am N 13.6-----30.06- 51.3 50.7- 31.55--
2024-04-22 11:20 am N 13.6- 6.6-- NW30.07- 51.3 50.7- 31.53--
2024-04-22 11:10 am N 13.6- 6.6 9--30.08- 51.1 50.7- 31.51--
2024-04-22 11:00 am N 13.6-----30.08-0.04 50.9 50.7- 31.52--
2024-04-22 10:50 am N 13.6-----30.08- 50.9 50.7- 31.53--
2024-04-22 10:40 am N 13.6-----30.08- 50.7 50.7- 31.55--
2024-04-22 10:30 am N 13.6-----30.08- 50.5 50.7- 31.57--
2024-04-22 10:20 am N 13.6- 6.2-- NW30.08- 50.7 50.7- 31.57--
2024-04-22 10:10 amNNE 13.6- 6.2 11--30.08- 50.5 50.5- 31.58--
2024-04-22 10:00 amNNE 13.6-----30.09-0.03 50.4 50.5- 31.57--
2024-04-22 09:50 amNNE 13.6-----30.09- 50.2 50.5- 31.59--
2024-04-22 09:40 amNNE 13.6-----30.09- 50.0 50.5- 31.62--
2024-04-22 09:30 amNNE 11.7-----30.09- 50.0 50.4- 31.65--
2024-04-22 09:20 amNNE 13.6- 6.6-- NW30.09- 50.0 50.4- 31.65--
2024-04-22 09:10 amNNE 13.6- 6.6 11--30.10- 50.0 50.2- 31.64--
2024-04-22 09:00 amNNE 13.6-----30.10-0.02 50.0 50.2- 31.63--
2024-04-22 08:50 amNNE 13.6-----30.11- 49.8 50.2- 31.62--
2024-04-22 08:40 amNNE 11.7-----30.11- 49.8 50.2- 31.63--
2024-04-22 08:30 amNNE 13.6-----30.11- 49.8 50.2- 31.62--
2024-04-22 08:20 amNNE 13.6- 6.6-- NW30.11- 49.8 50.2- 31.62--
2024-04-22 08:10 amNNE 13.6- 6.6 9--30.11- 49.8 50.2- 31.61--
2024-04-22 08:00 amNNE 15.5-----30.11-0.03 49.8 50.2- 31.60--
2024-04-22 07:50 amNNE 15.5-----30.11- 49.8 50.2- 31.61--
2024-04-22 07:40 am N 15.5-----30.11- 49.8 50.2- 31.61--
2024-04-22 07:30 am N 15.5-----30.11- 49.6 50.2- 31.60--
2024-04-22 07:20 am N 17.5- 6.6-- NW30.11- 49.6 50.2- 31.60--
2024-04-22 07:10 am N 17.5- 6.6 9--30.11- 49.6 50.2- 31.58--
2024-04-22 07:00 am N 17.5-----30.11-0.04 49.6 50.2- 31.59--
2024-04-22 06:50 am N 17.5-----30.12- 49.6 50.2- 31.58--
2024-04-22 06:40 am N 17.5-----30.12- 49.6 50.2- 31.60--
2024-04-22 06:30 am N 17.5-----30.12- 49.6 50.2- 31.59--
2024-04-22 06:20 am N 15.5- 6.9-- NW30.12- 49.8 50.2- 31.59--
2024-04-22 06:10 am N 17.5- 6.9 9--30.12- 49.8 50.4- 31.57--
2024-04-22 06:00 am N 17.5-----30.12-0.05 50.0 50.4- 31.56--
2024-04-22 05:50 am N 17.5-----30.13- 49.8 50.4- 31.54--
2024-04-22 05:40 am N 17.5-----30.12- 49.8 50.4- 31.53--
2024-04-22 05:30 am N 17.5-----30.13- 49.8 50.5- 31.52--
2024-04-22 05:20 am N 15.5- 6.6-- NW30.13- 49.8 50.5- 31.53--
2024-04-22 05:10 am N 17.5- 6.6 12--30.14- 50.0 50.5- 31.50--
2024-04-22 05:00 am N 17.5-----30.14-0.05 50.0 50.5- 31.48--
2024-04-22 04:50 am N 17.5-----30.15- 50.0 50.5- 31.48--
2024-04-22 04:40 am N 15.5-----30.15- 50.2 50.5- 31.45--
2024-04-22 04:30 am N 15.5-----30.15- 50.2 50.5- 31.42--
2024-04-22 04:20 am N 17.5- 7.2-- NW30.15- 50.0 50.7- 31.39--
2024-04-22 04:10 am N 17.5- 7.2 9--30.15- 50.0 50.5- 31.38--
2024-04-22 04:00 am N 15.5-----30.16-0.04 50.0 50.5- 31.37--
2024-04-22 03:50 am N 15.5-----30.16- 50.2 50.7- 31.34--
2024-04-22 03:40 am N 17.5-----30.16- 50.2 50.7- 31.31--
2024-04-22 03:30 amNNE 17.5-----30.16- 50.5 50.7- 31.28--
2024-04-22 03:20 am N 17.5- 7.5-- NW30.17- 50.5 50.7- 31.25--
2024-04-22 03:10 am N 17.5- 7.5 9--30.17- 50.7 50.7- 31.23--
2024-04-22 03:00 am N 17.5-----30.17-0.04 50.7 50.7- 31.20--
2024-04-22 02:50 am N 17.5-----30.17- 50.7 50.7- 31.19--
2024-04-22 02:40 am N 17.5-----30.17- 50.9 50.9- 31.16--
2024-04-22 02:30 am N 17.5-----30.18- 50.9 50.9- 31.13--
2024-04-22 02:20 am N 17.5- 7.5-- NW30.18- 50.9 50.9- 31.12--
2024-04-22 02:10 am N 17.5- 7.5 10--30.19- 50.9 50.9- 31.13--
2024-04-22 02:00 am N 17.5-----30.19-0.04 50.9 50.9- 31.11--
2024-04-22 01:50 am N 17.5-----30.19- 51.1 50.9- 31.10--
2024-04-22 01:40 am N 17.5-----30.20- 51.1 51.1- 31.09--
2024-04-22 01:30 am N 17.5-----30.20- 51.1 50.9- 31.09--
2024-04-22 01:20 am N 17.5- 6.9-- NW30.20- 51.1 51.1- 31.08--
2024-04-22 01:10 am N 19.4- 6.9 10--30.20- 51.3 50.9- 31.08--
2024-04-22 01:00 am N 17.5-----30.20-0.04 51.3 50.9- 31.08--
2024-04-22 12:50 am N 19.4-----30.21- 51.3 50.9- 31.04--
2024-04-22 12:40 am N 17.5-----30.21- 51.3 51.1- 31.04--
2024-04-22 12:30 am N 19.4-----30.21- 51.4 51.3- 30.98--
2024-04-22 12:20 am N 19.4- 7.5-- NW30.21- 51.4 51.1- 30.94--
2024-04-22 12:10 am N 19.4- 7.5 10--30.21- 51.4 51.1- 30.93--
2024-04-22 12:00 am N 19.4-----30.21-0.04 51.4 51.1- 30.90--
2024-04-21 11:50 pm N 19.4-----30.22- 51.6 51.3- 30.87--

Detailed Wave Summary
for 46097 as of
(10:10 pm PDT on 04/22/2024)
0510 GMT on 04/23/2024:
Note: This report is more than two hours old

These wave data are displayed in rounded times.

     

Click on the graph icon in the table below to see a time series plot of the last five days of that observation.

5-day plot - Significant Wave Height Significant Wave Height (WVHT): 8.2 ft
5-day plot - Wave Steepness Wave Steepness (STEEPNESS):VERY_STEEP
Previous observations
TIME
(PDT)
5-day plot - Wave Height
WVHT
ft
5-day plot - Swell Height
SwH
ft
5-day plot - Swell Period
SwP
sec
5-day plot - Swell Direction
SwD
 
5-day plot - Wind Wave Height
WWH
ft
5-day plot - Wind Wave Period
WWP
sec
5-day plot - Wind Wave Direction
WWD
 
5-day plot - Wave Steepness
STEEPNESS
 
5-day plot - Average Wave Period
APD
sec
2024-04-22 09:10 pm 7.9------ AVERAGE-
2024-04-22 08:10 pm 7.9------ STEEP-
2024-04-22 07:10 pm 7.5------ AVERAGE-
2024-04-22 06:10 pm 7.2------ STEEP-
2024-04-22 05:10 pm 6.9------ AVERAGE-
2024-04-22 04:10 pm 6.6------ AVERAGE-
2024-04-22 03:10 pm 6.9------ AVERAGE-
2024-04-22 02:10 pm 6.2------ AVERAGE-
2024-04-22 01:10 pm 6.2------ AVERAGE-
2024-04-22 11:10 am 6.6------ AVERAGE-
2024-04-22 10:10 am 6.2------ N/A-
2024-04-22 09:10 am 6.6------ N/A-
2024-04-22 08:10 am 6.6------ AVERAGE-
2024-04-22 07:10 am 6.6------ AVERAGE-
2024-04-22 06:10 am 6.9------ AVERAGE-
2024-04-22 05:10 am 6.6------ N/A-
2024-04-22 04:10 am 7.2------ AVERAGE-
2024-04-22 03:10 am 7.5------ AVERAGE-
2024-04-22 02:10 am 7.5------ AVERAGE-
2024-04-22 01:10 am 6.9------ AVERAGE-
2024-04-22 12:10 am 7.5------ AVERAGE-

Ocean Conditions at 46097 as of
(10:50 pm PDT on 04/22/2024)
0550 GMT on 04/23/2024:

These oceanographic data are displayed in rounded times.

     

Click on the graph icon in the table below to see a time series plot of the last five days of that observation.

Depth (DEPTH): 3.6 ft
5-day plot - Ocean Temperature Ocean Temperature (OTMP):50.18 °F
5-day plot - Salinity Salinity (SAL):31.54 psu
Previous observations
TIME
(PDT)
DEPTH
ft
5-day plot - Ocean Temperature
OTMP
°F
5-day plot - Conductivity
COND
mS/cm
5-day plot - Salinity
SAL
psu
5-day plot - Oxygen Concentration
O2%
%
5-day plot - Oxygen Concentration
O2PPM
ppm
5-day plot - Chlorophyll
CLCON
ug/l
5-day plot - Turbidity
TURB
FTU
5-day plot - pH
PH
 
5-day plot - Eh
EH
mv
2024-04-22 10:40 pm 3.650.22-31.51------
2024-04-22 10:30 pm 3.650.25-31.51------
2024-04-22 10:20 pm 3.650.29-31.50------
2024-04-22 10:10 pm 3.650.31-31.49------
2024-04-22 10:00 pm 3.650.32-31.48------
2024-04-22 09:50 pm 3.650.38-31.46------
2024-04-22 09:40 pm 3.650.45-31.47------
2024-04-22 09:30 pm 3.650.50-31.45------
2024-04-22 09:20 pm 3.650.58-31.43------
2024-04-22 09:10 pm 3.650.59-31.42------
2024-04-22 09:00 pm 3.650.59-31.42------
2024-04-22 08:50 pm 3.650.59-31.43------
2024-04-22 08:40 pm 3.650.58-31.43------
2024-04-22 08:30 pm 3.650.56-31.43------
2024-04-22 08:20 pm 3.650.56-31.43------
2024-04-22 08:10 pm 3.650.56-31.44------
2024-04-22 08:00 pm 3.650.63-31.42------
2024-04-22 07:50 pm 3.650.65-31.44------
2024-04-22 07:40 pm 3.650.65-31.44------
2024-04-22 07:30 pm 3.650.59-31.44------
2024-04-22 07:20 pm 3.650.52-31.44------
2024-04-22 07:10 pm 3.650.54-31.42------
2024-04-22 07:00 pm 3.650.54-31.42------
2024-04-22 06:50 pm 3.650.56-31.42------
2024-04-22 06:40 pm 3.650.63-31.42------
2024-04-22 06:30 pm 3.650.70-31.42------
2024-04-22 06:20 pm 3.650.74-31.43------
2024-04-22 06:10 pm 3.650.81-31.43------
2024-04-22 06:00 pm 3.650.83-31.46------
2024-04-22 05:50 pm 3.650.88-31.46------
2024-04-22 05:40 pm 3.650.90-31.47------
2024-04-22 05:30 pm 3.650.88-31.49------
2024-04-22 05:20 pm 3.650.88-31.50------
2024-04-22 05:10 pm 3.650.86-31.51------
2024-04-22 05:00 pm 3.650.83-31.52------
2024-04-22 04:50 pm 3.650.77-31.54------
2024-04-22 04:40 pm 3.650.79-31.54------
2024-04-22 04:30 pm 3.650.77-31.55------
2024-04-22 04:20 pm 3.650.81-31.55------
2024-04-22 04:10 pm 3.650.86-31.54------
2024-04-22 04:00 pm 3.650.90-31.53------
2024-04-22 03:50 pm 3.650.86-31.54------
2024-04-22 03:40 pm 3.650.88-31.54------
2024-04-22 03:30 pm 3.650.94-31.54------
2024-04-22 03:20 pm 3.650.99-31.54------
2024-04-22 03:10 pm 3.650.88-31.56------
2024-04-22 03:00 pm 3.650.81-31.55------
2024-04-22 02:50 pm 3.650.74-31.54------
2024-04-22 02:40 pm 3.650.76-31.51------
2024-04-22 02:30 pm 3.650.85-31.49------
2024-04-22 02:20 pm 3.650.94-31.48------
2024-04-22 02:10 pm 3.650.92-31.50------
2024-04-22 02:00 pm 3.650.88-31.49------
2024-04-22 01:50 pm 3.650.85-31.50------
2024-04-22 01:40 pm 3.650.86-31.51------
2024-04-22 01:30 pm 3.650.92-31.52------
2024-04-22 01:20 pm 3.650.95-31.53------
2024-04-22 01:10 pm 3.650.97-31.56------
2024-04-22 01:00 pm 3.650.90-31.59------
2024-04-22 11:50 am 3.650.79-31.55------
2024-04-22 11:40 am 3.650.77-31.55------
2024-04-22 11:30 am 3.650.70-31.55------
2024-04-22 11:20 am 3.650.79-31.53------
2024-04-22 11:10 am 3.650.77-31.51------
2024-04-22 11:00 am 3.650.77-31.52------
2024-04-22 10:50 am 3.650.77-31.53------
2024-04-22 10:40 am 3.650.72-31.55------
2024-04-22 10:30 am 3.650.68-31.57------
2024-04-22 10:20 am 3.650.67-31.57------
2024-04-22 10:10 am 3.650.61-31.58------
2024-04-22 10:00 am 3.650.58-31.57------
2024-04-22 09:50 am 3.650.54-31.59------
2024-04-22 09:40 am 3.650.50-31.62------
2024-04-22 09:30 am 3.650.43-31.65------
2024-04-22 09:20 am 3.650.36-31.65------
2024-04-22 09:10 am 3.650.27-31.64------
2024-04-22 09:00 am 3.650.22-31.63------
2024-04-22 08:50 am 3.650.18-31.62------
2024-04-22 08:40 am 3.650.13-31.63------
2024-04-22 08:30 am 3.650.09-31.62------
2024-04-22 08:20 am 3.650.13-31.62------
2024-04-22 08:10 am 3.650.20-31.61------
2024-04-22 08:00 am 3.650.25-31.60------
2024-04-22 07:50 am 3.650.25-31.61------
2024-04-22 07:40 am 3.650.22-31.61------
2024-04-22 07:30 am 3.650.18-31.60------
2024-04-22 07:20 am 3.650.16-31.60------
2024-04-22 07:10 am 3.650.20-31.58------
2024-04-22 07:00 am 3.650.20-31.59------
2024-04-22 06:50 am 3.650.20-31.58------
2024-04-22 06:40 am 3.650.18-31.60------
2024-04-22 06:30 am 3.650.22-31.59------
2024-04-22 06:20 am 3.650.23-31.59------
2024-04-22 06:10 am 3.650.31-31.57------
2024-04-22 06:00 am 3.650.32-31.56------
2024-04-22 05:50 am 3.650.40-31.54------
2024-04-22 05:40 am 3.650.43-31.53------
2024-04-22 05:30 am 3.650.47-31.52------
2024-04-22 05:20 am 3.650.47-31.53------
2024-04-22 05:10 am 3.650.50-31.50------
2024-04-22 05:00 am 3.650.52-31.48------
2024-04-22 04:50 am 3.650.54-31.48------
2024-04-22 04:40 am 3.650.58-31.45------
2024-04-22 04:30 am 3.650.61-31.42------
2024-04-22 04:20 am 3.650.67-31.39------
2024-04-22 04:10 am 3.650.63-31.38------
2024-04-22 04:00 am 3.650.63-31.37------
2024-04-22 03:50 am 3.650.65-31.34------
2024-04-22 03:40 am 3.650.70-31.31------
2024-04-22 03:30 am 3.650.72-31.28------
2024-04-22 03:20 am 3.650.76-31.25------
2024-04-22 03:10 am 3.650.79-31.23------
2024-04-22 03:00 am 3.650.81-31.20------
2024-04-22 02:50 am 3.650.81-31.19------
2024-04-22 02:40 am 3.650.85-31.16------
2024-04-22 02:30 am 3.650.86-31.13------
2024-04-22 02:20 am 3.650.88-31.12------
2024-04-22 02:10 am 3.650.88-31.13------
2024-04-22 02:00 am 3.650.94-31.11------
2024-04-22 01:50 am 3.650.95-31.10------
2024-04-22 01:40 am 3.650.99-31.09------
2024-04-22 01:30 am 3.650.99-31.09------
2024-04-22 01:20 am 3.650.99-31.08------
2024-04-22 01:10 am 3.650.94-31.08------
2024-04-22 01:00 am 3.650.94-31.08------
2024-04-22 12:50 am 3.650.95-31.04------
2024-04-22 12:40 am 3.651.01-31.04------
2024-04-22 12:30 am 3.651.19-30.98------
2024-04-22 12:20 am 3.651.10-30.94------
2024-04-22 12:10 am 3.651.12-30.93------
2024-04-22 12:00 am 3.651.12-30.90------
2024-04-21 11:50 pm 3.651.22-30.87------

Solar Radiation Conditions at 46097 as of
(10:50 pm PDT on 04/22/2024)
0550 GMT on 04/23/2024:
     

Click on the graph icon in the table below to see a time series plot of the last five days of that observation.

5-day plot - Short Wave Radiation 1 Short Wave Radiation 1 (SRAD1): 4.2watts/meter2
5-day plot - Long Wave Radiation Long Wave Radiation (LWRAD): 286.2watts/meter2
Previous observations
TIME
(PDT)
5-day plot - Short Wave Radiation 1
SRAD1
w/m2
5-day plot - Short Wave Radiation 2
SRAD2
w/m2
5-day plot - Long Wave Radiation
LRAD
w/m2
2024-04-22 10:40 pm 4.1- 284.9
2024-04-22 10:30 pm 4.1- 283.9
2024-04-22 10:20 pm 4.1- 282.8
2024-04-22 10:10 pm 4.1- 283.0
2024-04-22 10:00 pm 4.2- 284.2
2024-04-22 09:50 pm 4.1- 287.2
2024-04-22 09:40 pm 4.2- 288.9
2024-04-22 09:30 pm 4.2- 291.6
2024-04-22 09:20 pm 4.3- 290.9
2024-04-22 09:10 pm 4.3- 293.2
2024-04-22 09:00 pm 4.3- 294.4
2024-04-22 08:50 pm 4.2- 293.5
2024-04-22 08:40 pm 4.2- 288.7
2024-04-22 08:30 pm 4.5- 284.4
2024-04-22 08:20 pm 5.5- 283.3
2024-04-22 08:10 pm 8.6- 282.6
2024-04-22 08:00 pm 15.8- 282.8
2024-04-22 07:50 pm 25.1- 282.4
2024-04-22 07:40 pm 38.5- 282.0
2024-04-22 07:30 pm 42.5- 280.4
2024-04-22 07:20 pm 83.8- 280.8
2024-04-22 07:10 pm 142.9- 281.4
2024-04-22 07:00 pm 160.5- 280.6
2024-04-22 06:50 pm 176.4- 279.8
2024-04-22 06:40 pm 221.6- 279.8
2024-04-22 06:30 pm 271.1- 279.5
2024-04-22 06:20 pm 306.1- 279.6
2024-04-22 06:10 pm 345.5- 280.4
2024-04-22 06:00 pm 377.3- 280.8
2024-04-22 05:50 pm 400.8- 283.3
2024-04-22 05:40 pm 413.1- 283.9
2024-04-22 05:30 pm 411.4- 284.3
2024-04-22 05:20 pm 528.3- 285.3
2024-04-22 05:10 pm 524.3- 285.9
2024-04-22 05:00 pm 556.9- 288.6
2024-04-22 04:50 pm 571.8- 291.5
2024-04-22 04:40 pm 525.1- 291.3
2024-04-22 04:30 pm 556.4- 289.2
2024-04-22 04:20 pm 642.7- 288.8
2024-04-22 04:10 pm 727.2- 292.3
2024-04-22 04:00 pm 613.6- 296.1
2024-04-22 03:50 pm 574.9- 292.8
2024-04-22 03:40 pm 717.4- 285.1
2024-04-22 03:30 pm 854.0- 282.6
2024-04-22 03:20 pm 871.6- 282.2
2024-04-22 03:10 pm 853.9- 281.2
2024-04-22 03:00 pm 907.7- 283.2
2024-04-22 02:50 pm 887.1- 287.5
2024-04-22 02:40 pm 864.0- 286.5
2024-04-22 02:30 pm 857.2- 285.7
2024-04-22 02:20 pm 904.4- 283.9
2024-04-22 02:10 pm 870.7- 283.9
2024-04-22 02:00 pm 885.2- 284.7
2024-04-22 01:50 pm 905.8- 285.1
2024-04-22 01:40 pm 884.2- 284.8
2024-04-22 01:30 pm 938.5- 285.4
2024-04-22 01:20 pm 910.5- 283.0
2024-04-22 01:10 pm 901.1- 281.1
2024-04-22 01:00 pm 867.5- 280.4
2024-04-22 11:50 am 857.3- 276.8
2024-04-22 11:40 am 836.3- 275.1
2024-04-22 11:30 am 873.6- 273.1
2024-04-22 11:20 am 874.0- 272.0
2024-04-22 11:10 am 833.7- 273.3
2024-04-22 11:00 am 750.1- 274.4
2024-04-22 10:50 am 682.1- 275.6
2024-04-22 10:40 am 700.0- 274.9
2024-04-22 10:30 am 688.0- 272.4
2024-04-22 10:20 am 638.4- 271.2
2024-04-22 10:10 am 662.3- 270.5
2024-04-22 10:00 am 604.3- 269.2
2024-04-22 09:50 am 608.7- 268.3
2024-04-22 09:40 am 592.4- 268.2
2024-04-22 09:30 am 552.8- 269.1
2024-04-22 09:20 am 496.1- 269.2
2024-04-22 09:10 am 454.8- 268.2
2024-04-22 09:00 am 416.4- 268.5
2024-04-22 08:50 am 382.2- 268.0
2024-04-22 08:40 am 346.6- 268.6
2024-04-22 08:30 am 312.3- 269.1
2024-04-22 08:20 am 292.6- 269.0
2024-04-22 08:10 am 263.7- 268.0
2024-04-22 08:00 am 219.6- 267.4
2024-04-22 07:50 am 186.7- 267.4
2024-04-22 07:40 am 170.8- 267.2
2024-04-22 07:30 am 129.8- 267.7
2024-04-22 07:20 am 109.2- 266.9
2024-04-22 07:10 am 76.4- 267.9
2024-04-22 07:00 am 57.0- 268.6
2024-04-22 06:50 am 45.3- 268.2
2024-04-22 06:40 am 31.0- 268.5
2024-04-22 06:30 am 18.6- 269.2
2024-04-22 06:20 am 10.0- 270.0
2024-04-22 06:10 am 6.0- 269.4
2024-04-22 06:00 am 4.4- 269.4
2024-04-22 05:50 am 4.0- 270.6
2024-04-22 05:40 am 3.9- 269.6
2024-04-22 05:30 am 3.8- 269.8
2024-04-22 05:20 am 3.8- 269.4
2024-04-22 05:10 am 3.8- 268.3
2024-04-22 05:00 am 3.8- 269.0
2024-04-22 04:50 am 3.8- 268.9
2024-04-22 04:40 am 3.8- 268.8
2024-04-22 04:30 am 3.9- 268.4
2024-04-22 04:20 am 3.9- 268.3
2024-04-22 04:10 am 3.7- 268.4
2024-04-22 04:00 am 3.7- 269.1
2024-04-22 03:50 am 3.7- 269.0
2024-04-22 03:40 am 3.6- 269.1
2024-04-22 03:30 am 3.7- 270.7
2024-04-22 03:20 am 3.7- 270.7
2024-04-22 03:10 am 3.7- 271.9
2024-04-22 03:00 am 3.9- 273.2
2024-04-22 02:50 am 3.8- 272.9
2024-04-22 02:40 am 3.9- 273.4
2024-04-22 02:30 am 3.8- 273.6
2024-04-22 02:20 am 3.8- 273.7
2024-04-22 02:10 am 3.9- 273.6
2024-04-22 02:00 am 3.9- 274.1
2024-04-22 01:50 am 3.9- 274.3
2024-04-22 01:40 am 3.9- 274.6
2024-04-22 01:30 am 4.0- 275.9
2024-04-22 01:20 am 3.9- 276.2
2024-04-22 01:10 am 3.9- 276.7
2024-04-22 01:00 am 3.9- 276.8
2024-04-22 12:50 am 4.0- 276.1
2024-04-22 12:40 am 3.9- 276.6
2024-04-22 12:30 am 3.9- 275.9
2024-04-22 12:20 am 4.0- 275.3
2024-04-22 12:10 am 4.0- 276.3
2024-04-22 12:00 am 4.0- 276.1
2024-04-21 11:50 pm 4.0- 275.6